User: anonymous   Login
Location: Unspecified
(0.0000°N, 0.0000°E)
Time: 22:18:30
(UTC+00:00)
Language:

STRAND 1 - Orbit

View from above orbital plane
View from above orbital plane
View from above satellite
View from above satellite

Ground track
Ground track

The orbit data is extracted from the following two-line orbital elements,

1 39090U 13009E   24146.49342251  .00000677  00000-0  24728-3 0  9997
2 39090  98.3814 335.4061 0008131 327.4848  32.5836 14.36060168588987
Epoch (UTC): 25 May 2024 11:50:31
Eccentricity: 0.0008131
inclination: 98.3814°
perigee height: 766 km
apogee height: 777 km
right ascension of ascending node: 335.4061°
argument of perigee: 327.4848°
revolutions per day: 14.36060168
mean anomaly at epoch: 32.5836°
orbit number at epoch: 58898

The dashed part of the orbit path shows where the satellite is in the earth's shadow,  

DLR